When you browse on this site, cookies collect data to enhance your experience and personalize the content and advertising you see.
Visit our Privacy Policy to learn more. By continuing to use the site, you agree to this use of cookies and data.
  • In Schweiz
  • Länderverzeichnis
  • Für 7 Tage
  • Wassertemperatur
  • Satellitenkarten
  • Wetterkarte
  • Widgets
  • user-avatar
    Anmelden

    Stündliche Wetter Xinshi

    Heute, 23 Juli, Dienstag

    Zeit Temperatur Niederschläge Wind Luftdruck Luftfeuchtigkeit
    00:00 +30°C° 0.2 mm 1 m/S 744 mmHg 87%
    01:00 +29°C° 0.2 mm 1 m/S 744 mmHg 88%
    02:00 +29°C° 0 mm 1 m/S 744 mmHg 87%
    03:00 +29°C° 0 mm 1 m/S 744 mmHg 88%
    04:00 +29°C° 0 mm 1 m/S 744 mmHg 89%
    05:00 +29°C° 0 mm 1 m/S 743 mmHg 90%
    06:00 +30°C° 0 mm 1 m/S 744 mmHg 88%
    07:00 +30°C° 0 mm 2 m/S 744 mmHg 86%
    08:00 +31°C° 0 mm 2 m/S 745 mmHg 86%
    09:00 +34°C° 0.1 mm 2 m/S 744 mmHg 81%
    10:00 +35°C° 0.1 mm 3 m/S 744 mmHg 75%
    11:00 +36°C° 0.1 mm 3 m/S 744 mmHg 70%
    12:00 +36°C° 1.3 mm 3 m/S 743 mmHg 70%
    13:00 +37°C° 1.3 mm 3 m/S 743 mmHg 70%
    14:00 +37°C° 0 mm 4 m/S 743 mmHg 66%
    15:00 +37°C° 0 mm 4 m/S 743 mmHg 67%
    16:00 +37°C° 0 mm 4 m/S 743 mmHg 69%
    17:00 +36°C° 0 mm 4 m/S 742 mmHg 71%
    18:00 +35°C° 0.5 mm 3 m/S 743 mmHg 76%
    19:00 +32°C° 0.5 mm 2 m/S 743 mmHg 82%
    20:00 +31°C° 0.5 mm 1 m/S 744 mmHg 87%
    21:00 +30°C° 2.7 mm 2 m/S 744 mmHg 89%
    22:00 +29°C° 2.7 mm 3 m/S 745 mmHg 91%
    23:00 +28°C° 2.7 mm 4 m/S 745 mmHg 94%

    Morgen, 24 Juli, Mittwoch

    Zeit Temperatur Niederschläge Wind Luftdruck Luftfeuchtigkeit
    00:00 +28°C° 0.1 mm 3 m/S 745 mmHg 94%
    01:00 +28°C° 0.1 mm 2 m/S 745 mmHg 95%
    02:00 +28°C° 0.1 mm 2 m/S 745 mmHg 95%
    03:00 +27°C° 0.6 mm 1 m/S 745 mmHg 95%
    04:00 +27°C° 0.6 mm 1 m/S 745 mmHg 95%
    05:00 +27°C° 0.6 mm 1 m/S 745 mmHg 95%
    06:00 +28°C° 0 mm 1 m/S 745 mmHg 91%
    07:00 +28°C° 0 mm 1 m/S 745 mmHg 88%
    08:00 +29°C° 0 mm 1 m/S 746 mmHg 85%
    09:00 +31°C° 0 mm 1 m/S 746 mmHg 81%
    10:00 +32°C° 0 mm 1 m/S 746 mmHg 76%
    11:00 +33°C° 0 mm 1 m/S 746 mmHg 72%
    12:00 +34°C° 0.1 mm 2 m/S 745 mmHg 73%
    13:00 +35°C° 0.1 mm 2 m/S 745 mmHg 74%
    14:00 +35°C° 0.1 mm 2 m/S 745 mmHg 75%
    15:00 +35°C° 0.4 mm 2 m/S 744 mmHg 75%
    16:00 +35°C° 0.4 mm 2 m/S 744 mmHg 76%
    17:00 +35°C° 0.4 mm 2 m/S 744 mmHg 77%
    18:00 +34°C° 0 mm 2 m/S 744 mmHg 81%
    19:00 +32°C° 0 mm 2 m/S 744 mmHg 84%
    20:00 +31°C° 0 mm 2 m/S 745 mmHg 88%
    21:00 +30°C° 0 mm 1 m/S 745 mmHg 89%
    22:00 +30°C° 0 mm 1 m/S 745 mmHg 90%
    23:00 +30°C° 0 mm 1 m/S 746 mmHg 91%

    übermorgen, 25 Juli, Donnerstag

    Zeit Temperatur Niederschläge Wind Luftdruck Luftfeuchtigkeit
    00:00 +29°C° 0 mm 1 m/S 746 mmHg 92%
    01:00 +29°C° 0 mm 1 m/S 745 mmHg 92%
    02:00 +29°C° 0 mm 1 m/S 745 mmHg 93%
    03:00 +29°C° 0 mm 1 m/S 745 mmHg 92%
    04:00 +29°C° 0 mm 2 m/S 745 mmHg 92%
    05:00 +28°C° 0 mm 2 m/S 745 mmHg 91%
    06:00 +29°C° 0 mm 2 m/S 745 mmHg 89%
    07:00 +30°C° 0 mm 3 m/S 746 mmHg 86%
    08:00 +31°C° 0 mm 3 m/S 746 mmHg 84%
    09:00 +33°C° 0 mm 4 m/S 746 mmHg 80%
    10:00 +34°C° 0 mm 4 m/S 746 mmHg 77%
    11:00 +35°C° 0 mm 4 m/S 746 mmHg 73%
    12:00 +36°C° 0 mm 4 m/S 745 mmHg 71%
    13:00 +37°C° 0 mm 4 m/S 745 mmHg 69%
    14:00 +37°C° 0 mm 5 m/S 744 mmHg 67%
    15:00 +37°C° 0.1 mm 4 m/S 744 mmHg 69%
    16:00 +37°C° 0.1 mm 4 m/S 744 mmHg 71%
    17:00 +36°C° 0.1 mm 4 m/S 743 mmHg 73%
    18:00 +35°C° 0.5 mm 3 m/S 743 mmHg 77%
    19:00 +34°C° 0.5 mm 3 m/S 744 mmHg 81%
    20:00 +32°C° 0.5 mm 2 m/S 744 mmHg 85%
    21:00 +31°C° 0.1 mm 2 m/S 744 mmHg 85%
    22:00 +31°C° 0.1 mm 2 m/S 744 mmHg 86%
    23:00 +31°C° 0.1 mm 2 m/S 745 mmHg 86%

    26 Juli, Freitag

    Zeit Temperatur Niederschläge Wind Luftdruck Luftfeuchtigkeit
    00:00 +30°C° 0 mm 2 m/S 744 mmHg 86%
    01:00 +30°C° 0 mm 2 m/S 744 mmHg 86%
    02:00 +30°C° 0 mm 2 m/S 744 mmHg 86%
    03:00 +30°C° 0 mm 2 m/S 744 mmHg 86%
    04:00 +29°C° 0 mm 2 m/S 743 mmHg 86%
    05:00 +29°C° 0 mm 2 m/S 743 mmHg 86%
    06:00 +30°C° 0 mm 3 m/S 744 mmHg 85%
    07:00 +32°C° 0 mm 4 m/S 744 mmHg 83%
    08:00 +32°C° 0 mm 5 m/S 744 mmHg 81%
    09:00 +34°C° 0 mm 5 m/S 744 mmHg 77%
    10:00 +35°C° 0 mm 5 m/S 744 mmHg 74%
    11:00 +36°C° 0 mm 6 m/S 744 mmHg 70%
    12:00 +38°C° 0 mm 6 m/S 743 mmHg 69%
    13:00 +38°C° 0 mm 6 m/S 743 mmHg 68%
    14:00 +39°C° 0 mm 6 m/S 742 mmHg 67%
    15:00 +37°C° 0 mm 5 m/S 742 mmHg 69%
    16:00 +37°C° 0 mm 5 m/S 742 mmHg 70%
    17:00 +37°C° 0 mm 5 m/S 741 mmHg 72%
    18:00 +36°C° 0.1 mm 4 m/S 742 mmHg 74%
    19:00 +35°C° 0.1 mm 3 m/S 742 mmHg 77%
    20:00 +33°C° 0.1 mm 3 m/S 742 mmHg 79%
    21:00 +33°C° 0 mm 3 m/S 742 mmHg 78%
    22:00 +33°C° 0 mm 4 m/S 742 mmHg 77%
    23:00 +33°C° 0 mm 4 m/S 743 mmHg 76%

    27 Juli, Samstag

    Zeit Temperatur Niederschläge Wind Luftdruck Luftfeuchtigkeit
    00:00 +33°C° 0 mm 5 m/S 742 mmHg 76%
    01:00 +32°C° 0 mm 5 m/S 742 mmHg 75%
    02:00 +32°C° 0 mm 5 m/S 742 mmHg 75%
    03:00 +32°C° 0 mm 5 m/S 742 mmHg 76%
    04:00 +32°C° 0 mm 5 m/S 742 mmHg 76%
    05:00 +32°C° 0 mm 5 m/S 742 mmHg 77%
    06:00 +32°C° 0 mm 5 m/S 742 mmHg 77%
    07:00 +32°C° 0 mm 6 m/S 742 mmHg 77%
    08:00 +33°C° 0 mm 6 m/S 743 mmHg 78%
    09:00 +34°C° 0 mm 6 m/S 743 mmHg 75%
    10:00 +35°C° 0 mm 7 m/S 743 mmHg 72%
    11:00 +36°C° 0 mm 7 m/S 743 mmHg 70%
    12:00 +36°C° 0 mm 7 m/S 743 mmHg 68%
    13:00 +38°C° 0 mm 8 m/S 742 mmHg 67%
    14:00 +39°C° 0 mm 8 m/S 742 mmHg 65%
    15:00 +38°C° 0 mm 7 m/S 742 mmHg 67%
    16:00 +38°C° 0 mm 7 m/S 741 mmHg 68%
    17:00 +38°C° 0 mm 6 m/S 741 mmHg 69%
    18:00 +36°C° 0 mm 5 m/S 742 mmHg 71%
    19:00 +35°C° 0 mm 5 m/S 742 mmHg 73%
    20:00 +34°C° 0 mm 4 m/S 743 mmHg 74%
    21:00 +34°C° 0 mm 4 m/S 743 mmHg 73%
    22:00 +33°C° 0 mm 5 m/S 743 mmHg 71%
    23:00 +33°C° 0 mm 5 m/S 743 mmHg 70%

    28 Juli, Sonntag

    Zeit Temperatur Niederschläge Wind Luftdruck Luftfeuchtigkeit
    00:00 +33°C° 0 mm 5 m/S 743 mmHg 71%
    01:00 +32°C° 0 mm 5 m/S 743 mmHg 72%
    02:00 +32°C° 0 mm 4 m/S 742 mmHg 73%
    03:00 +32°C° 0 mm 5 m/S 743 mmHg 74%
    04:00 +32°C° 0 mm 5 m/S 743 mmHg 75%
    05:00 +30°C° 0 mm 5 m/S 743 mmHg 75%
    06:00 +32°C° 0 mm 6 m/S 743 mmHg 75%
    07:00 +32°C° 0 mm 6 m/S 744 mmHg 75%
    08:00 +33°C° 0 mm 7 m/S 744 mmHg 76%
    09:00 +34°C° 0 mm 7 m/S 744 mmHg 73%
    10:00 +35°C° 0 mm 7 m/S 744 mmHg 71%
    11:00 +36°C° 0 mm 7 m/S 744 mmHg 68%
    12:00 +38°C° 0 mm 8 m/S 744 mmHg 67%
    13:00 +38°C° 0 mm 8 m/S 744 mmHg 65%
    14:00 +39°C° 0 mm 8 m/S 743 mmHg 64%
    15:00 +39°C° 0 mm 7 m/S 743 mmHg 65%
    16:00 +38°C° 0 mm 7 m/S 743 mmHg 66%
    17:00 +38°C° 0 mm 6 m/S 743 mmHg 68%
    18:00 +36°C° 0 mm 6 m/S 743 mmHg 69%
    19:00 +35°C° 0 mm 5 m/S 743 mmHg 70%
    20:00 +34°C° 0 mm 4 m/S 743 mmHg 71%
    21:00 +34°C° 0 mm 5 m/S 743 mmHg 70%
    22:00 +33°C° 0 mm 5 m/S 744 mmHg 70%
    23:00 +33°C° 0 mm 5 m/S 744 mmHg 70%
    Mehr zeigen